User: anonymous   Login
Location: Unspecified
(0.0000°N, 0.0000°E)
Time: 22:23:25
(UTC+00:00)
Language:

STARLINK-32811 - Orbit

View from above orbital plane
View from above orbital plane
View from above satellite
View from above satellite

Ground track
Ground track

The orbit is defined by the following mean orbital elements,

1 63039U          26145.33335647 +.00000000 +00000-0 +13917-2 0 00009
2 63039  53.1581 262.2558 0001184  98.7763 109.6823 15.30209787    01
Epoch (UTC): 25 May 2026 08:00:01
Eccentricity: 0.0001184
inclination: 53.1581°
perigee height: 474 km
apogee height: 476 km
right ascension of ascending node: 262.2558°
argument of perigee: 98.7763°
revolutions per day: 15.30209787
mean anomaly at epoch: 109.6823°

The dashed part of the orbit path shows where the satellite is in the earth's shadow,  

DLR